Washington, NC

11:51 AM EDT on June 26, 2017 (GMT -0400)
Warren

Weather History for KOCW - April, 2014

Change the Weather History Date:

Wednesday, April 23, 2014

  Actual Average (KPGV) Record (KPGV)
Temperature  
Mean Temperature 62 °F -  
Max Temperature 73 °F 76 °F 93 °F (1985)
Min Temperature 52 °F 51 °F 35 °F (1982)
Degree Days  
Heating Degree Days 2    
Growing Degree Days 12 (Base 50)    
Moisture  
Dew Point 43 °F    
Average Humidity 54    
Maximum Humidity 85    
Minimum Humidity 11    
Precipitation  
Precipitation 0.00 in - - ()
Sea Level Pressure  
Sea Level Pressure 29.78 in    
Wind  
Wind Speed 6 mph (NW)    
Max Wind Speed 15 mph    
Max Gust Speed 22 mph    
Visibility 10 miles    
Events      
Averages and records for this station are not official NWS values.
T = Trace of Precipitation, MM = Missing Value Source: NWS Daily Summary

Daily Weather History Graph

Daily Weather History Graph

Search for Another Location

Airport or City:

Trip Planner

Search our weather history database for the weather conditions in past years. The results will help you decide how hot, cold, wet, or windy it might be!

Date:

Astronomy

Apr. 23, 2014 Rise Set
Actual Time 6:25 AM EDT 7:47 PM EDT
Civil Twilight 5:58 AM EDT 8:14 PM EDT
Nautical Twilight 5:26 AM EDT 8:46 PM EDT
Astronomical Twilight 4:53 AM EDT 9:20 PM EDT
Moon 2:43 AM EDT (4/23) 2:06 PM EDT (4/23)
Length of Visible Light 14h 15m
Length of Day
13h 22m
Waning Crescent, 35% of the Moon is Illuminated
Apr 23
Waning Crescent
Apr 29
New
May 6
First Quarter
May 14
Full
May 21
Last Quarter

Hourly Weather History & Observations

Time (EDT) Temp. Dew Point Humidity Pressure Visibility Wind Dir Wind Speed Gust Speed Precip Events Conditions
12:15 AM 66.6 °F 57.6 °F 73% 29.67 in 10.0 mi WSW 4.6 mph - N/A   Overcast
12:35 AM 66.7 °F 57.4 °F 72% 29.68 in 10.0 mi WSW 3.5 mph - N/A   Overcast
12:55 AM 68.0 °F 57.7 °F 70% 29.67 in 10.0 mi WSW 4.6 mph - N/A   Overcast
1:15 AM 68.0 °F 57.6 °F 69% 29.67 in 10.0 mi West 5.8 mph - N/A   Overcast
1:35 AM 68.0 °F 57.7 °F 70% 29.67 in 10.0 mi WSW 4.6 mph - N/A   Overcast
1:55 AM 66.9 °F 57.2 °F 71% 29.67 in 10.0 mi West 5.8 mph - N/A   Mostly Cloudy
2:15 AM 65.8 °F 56.8 °F 73% 29.66 in 10.0 mi WSW 3.5 mph - N/A   Scattered Clouds
2:35 AM 65.1 °F 57.0 °F 75% 29.65 in 10.0 mi West 4.6 mph - N/A   Clear
2:55 AM 63.5 °F 56.5 °F 78% 29.65 in 10.0 mi West 4.6 mph - N/A   Clear
3:15 AM 63.0 °F 56.3 °F 79% 29.65 in 10.0 mi West 4.6 mph - N/A   Clear
3:35 AM 63.0 °F 57.2 °F 81% 29.65 in 10.0 mi WSW 4.6 mph - N/A   Clear
3:55 AM 61.0 °F 55.6 °F 82% 29.65 in 10.0 mi WSW 4.6 mph - N/A   Clear
4:15 AM 60.6 °F 55.6 °F 83% 29.65 in 10.0 mi WSW 5.8 mph - N/A   Clear
4:35 AM 60.4 °F 55.6 °F 84% 29.65 in 10.0 mi West 4.6 mph - N/A   Clear
4:55 AM 62.2 °F 57.2 °F 84% 29.66 in 10.0 mi Calm Calm - N/A   Clear
5:15 AM 61.5 °F 56.5 °F 83% 29.67 in 10.0 mi Calm Calm - N/A   Clear
5:35 AM 60.8 °F 55.8 °F 83% 29.67 in 10.0 mi Calm Calm - N/A   Clear
5:55 AM 60.8 °F 55.8 °F 83% 29.68 in 10.0 mi NW 4.6 mph - N/A   Clear
6:15 AM 61.0 °F 55.8 °F 83% 29.69 in 10.0 mi NW 5.8 mph - N/A   Clear
6:35 AM 60.4 °F 55.4 °F 83% 29.70 in 10.0 mi NW 4.6 mph - N/A   Clear
6:55 AM 60.4 °F 55.8 °F 85% 29.72 in 10.0 mi NW 5.8 mph - N/A   Clear
7:15 AM 60.4 °F 55.8 °F 85% 29.73 in 10.0 mi NW 5.8 mph - N/A   Clear
7:35 AM 60.4 °F 55.8 °F 85% 29.74 in 10.0 mi NW 4.6 mph - N/A   Clear
7:55 AM 60.4 °F 55.6 °F 84% 29.75 in 10.0 mi NNW 5.8 mph - N/A   Clear
8:15 AM 60.8 °F 55.4 °F 82% 29.76 in 10.0 mi NNW 6.9 mph - N/A   Clear
8:35 AM 63.0 °F 57.2 °F 81% 29.76 in 10.0 mi North 8.1 mph - N/A   Clear
8:55 AM 63.0 °F 56.3 °F 79% 29.77 in 10.0 mi North 11.5 mph - N/A   Clear
9:15 AM 63.0 °F 55.0 °F 75% 29.78 in 10.0 mi NNW 9.2 mph - N/A   Clear
9:35 AM 64.4 °F 55.6 °F 73% 29.79 in 10.0 mi WNW 5.8 mph - N/A   Clear
9:55 AM 64.2 °F 55.6 °F 73% 29.79 in 10.0 mi NW 6.9 mph - N/A   Clear
10:15 AM 64.2 °F 54.5 °F 71% 29.80 in 10.0 mi NNW 8.1 mph - N/A   Scattered Clouds
10:35 AM 65.1 °F 54.3 °F 68% 29.81 in 10.0 mi North 8.1 mph - N/A   Clear
10:55 AM 64.8 °F 51.4 °F 62% 29.80 in 10.0 mi NNW 8.1 mph - N/A   Scattered Clouds
11:15 AM 65.7 °F 48.7 °F 54% 29.81 in 10.0 mi NNW 10.4 mph - N/A   Scattered Clouds
11:35 AM 66.7 °F 47.3 °F 50% 29.81 in 10.0 mi NNW 12.7 mph 17.3 mph N/A   Scattered Clouds
12:00 PM 66.2 °F 43.2 °F 43% 29.81 in 10.0 mi WNW 11.5 mph 17.3 mph N/A   Scattered Clouds
12:15 PM 67.8 °F 44.4 °F 43% 29.81 in 10.0 mi NW 11.5 mph - N/A   Scattered Clouds
12:35 PM 68.5 °F 45.7 °F 44% 29.80 in 10.0 mi NNW 10.4 mph - N/A   Clear
1:35 PM 69.8 °F 38.1 °F 31% 29.80 in 10.0 mi NW 12.7 mph 20.7 mph N/A   Clear
1:55 PM 70.9 °F 32.0 °F 24% 29.80 in 10.0 mi WNW 6.9 mph - N/A   Clear
2:15 PM 72.5 °F 28.0 °F 19% 29.79 in 10.0 mi NNW 13.8 mph 17.3 mph N/A   Clear
2:35 PM 73.0 °F 29.7 °F 20% 29.79 in 10.0 mi West 10.4 mph - N/A   Clear
2:55 PM 73.0 °F 25.9 °F 17% 29.79 in 10.0 mi West 10.4 mph 17.3 mph N/A   Clear
3:15 PM 73.0 °F 27.0 °F 18% 29.79 in 10.0 mi West 6.9 mph - N/A   Clear
3:35 PM 73.0 °F 25.2 °F 17% 29.79 in 10.0 mi NNW 9.2 mph 17.3 mph N/A   Clear
3:55 PM 73.0 °F 26.4 °F 18% 29.79 in 10.0 mi WNW 8.1 mph 19.6 mph N/A   Clear
4:15 PM 73.0 °F 25.0 °F 17% 29.79 in 10.0 mi NW 12.7 mph - N/A   Clear
4:35 PM 73.0 °F 20.7 °F 14% 29.80 in 10.0 mi NNW 15.0 mph 21.9 mph N/A   Clear
4:55 PM 73.0 °F 15.8 °F 11% 29.80 in 10.0 mi NNW 10.4 mph 19.6 mph N/A   Clear
5:15 PM 73.0 °F 22.3 °F 15% - 10.0 mi WNW 9.2 mph - N/A   Clear
5:35 PM 73.0 °F 19.9 °F 14% 29.81 in 10.0 mi NW 6.9 mph 20.7 mph N/A   Clear
5:55 PM 70.7 °F 20.1 °F 15% 29.81 in 10.0 mi NNW 10.4 mph 17.3 mph N/A   Clear
6:15 PM 70.7 °F 22.5 °F 16% 29.82 in 10.0 mi NNW 15.0 mph 18.4 mph N/A   Clear
6:35 PM 68.2 °F 20.5 °F 16% 29.83 in 10.0 mi NNW 12.7 mph - N/A   Clear
6:55 PM 68.0 °F 21.9 °F 17% 29.84 in 10.0 mi NW 4.6 mph - N/A   Clear
7:15 PM 66.7 °F 20.7 °F 17% 29.84 in 10.0 mi NW 8.1 mph - N/A   Clear
7:35 PM 65.7 °F 23.0 °F 20% 29.85 in 10.0 mi NNW 3.5 mph - N/A   Clear
7:55 PM 64.4 °F 24.3 °F 22% 29.87 in 10.0 mi NW 3.5 mph - N/A   Clear
8:15 PM 63.0 °F 28.9 °F 28% 29.87 in 10.0 mi NNW 3.5 mph - N/A   Clear
8:35 PM 59.4 °F 35.2 °F 40% 29.88 in 10.0 mi Calm Calm - N/A   Clear
8:55 PM 58.1 °F 38.5 °F 48% 29.89 in 10.0 mi Calm Calm - N/A   Clear
9:15 PM 58.1 °F 40.6 °F 52% 29.90 in 10.0 mi Calm Calm - N/A   Clear
9:35 PM 58.1 °F 41.4 °F 54% 29.90 in 10.0 mi Calm Calm - N/A   Clear
9:55 PM 58.1 °F 42.3 °F 56% 29.91 in 10.0 mi Calm Calm - N/A   Clear
10:15 PM 54.7 °F 40.3 °F 58% 29.92 in 10.0 mi Calm Calm - N/A   Clear
10:35 PM 54.7 °F 41.5 °F 61% 29.93 in 10.0 mi North 4.6 mph 9.2 mph N/A   Clear
10:55 PM 54.5 °F 41.5 °F 62% 29.94 in 10.0 mi NE 3.5 mph - N/A   Clear
11:15 PM 53.4 °F 42.3 °F 66% 29.95 in 10.0 mi North 3.5 mph - N/A   Clear
11:35 PM 52.9 °F 41.2 °F 64% 29.96 in 10.0 mi NNE 4.6 mph - N/A   Clear
11:55 PM 52.7 °F 40.6 °F 64% 29.97 in 10.0 mi NNE 4.6 mph - N/A   Clear